{"data":{"norad_id":52271,"epoch":"2026-05-25T03:08:29.049792Z","epoch_age_seconds":70469,"freshness":"FRESH","line1":"1 52271U 22041L   26145.13089178  .00000256  00000+0  34150-4 0  9990","line2":"2 52271  53.2141 125.9624 0001286  70.9998 289.1133 15.08834870225902","mean_motion":15.0883487,"eccentricity":0.0001286,"inclination_deg":53.2141,"raan_deg":125.9624,"arg_perigee_deg":70.9998,"mean_anomaly_deg":289.1133,"bstar":3.415e-5,"rev_number":22590,"period_min":95.437879163013,"perigee_km":538.86942793172,"apogee_km":540.64871080076,"semimajor_km":6917.8960693662,"source":"CELESTRAK","updated_at":"2026-05-25T13:38:17.081906Z"}}